EW6430 Weather Reports


time (UTC)temp
C
wind
direction
speed
KPH
gust
KPH
rain 1hr
cm
rain 24hr
cm
rain mn
cm
humidity
%
barometer
mb
20260506190225 21 196 1.6 8.0 0.00 0.00 0.00 56 1004.2
20260506185713 21 188 1.6 8.0 0.00 0.00 0.00 56 1004.2
20260506185201 21 192 1.6 8.0 0.00 0.00 0.00 55 1004.1
20260506184649 21 132 0.0 4.8 0.00 0.00 0.00 54 1004.1
20260506184521 21 132 0.0 6.4 0.00 0.00 0.00 54 1003.7
20260506184134 21 132 0.0 6.4 0.00 0.00 0.00 53 1004.0
20260506183624 21 161 1.6 8.0 0.00 0.00 0.00 52 1003.9
20260506183043 21 158 1.6 8.0 0.00 0.00 0.00 52 1003.5
20260506182559 21 145 3.2 14.5 0.00 0.00 0.00 51 1003.8
20260506181526 22 165 4.8 9.7 0.00 0.00 0.00 51 1003.9
20260506181502 21 165 3.2 9.7 0.00 0.00 0.00 51 1003.5
20260506181012 22 200 6.4 17.7 0.00 0.00 0.00 50 1003.9
20260506180455 22 170 8.0 17.7 0.00 0.00 0.00 50 1003.9
20260506180023 22 196 4.8 16.1 0.00 0.00 0.00 50 1003.4
20260506175945 22 140 8.0 16.1 0.00 0.00 0.00 50 1003.9
20260506175434 22 165 6.4 17.7 0.00 0.00 0.00 49 1003.8
20260506174920 22 151 6.4 17.7 0.00 0.00 0.00 50 1003.8
20260506174555 22 247 6.4 17.7 0.00 0.00 0.00 49 1003.4
20260506174412 22 219 6.4 17.7 0.00 0.00 0.00 50 1003.8
20260506173358 22 196 6.4 16.1 0.00 0.00 0.00 50 1003.9
20260506173132 22 227 4.8 16.1 0.00 0.00 0.00 50 1003.5
20260506172847 22 225 4.8 16.1 0.00 0.00 0.00 50 1004.0
20260506172332 23 186 6.4 16.1 0.00 0.00 0.00 50 1003.9
20260506171815 23 213 8.0 19.3 0.00 0.00 0.00 50 1003.8
20260506171550 22 176 6.4 16.1 0.00 0.00 0.00 50 1003.4
20260506170751 23 234 6.4 16.1 0.00 0.00 0.00 50 1003.8
20260506170244 23 242 8.0 27.4 0.00 0.00 0.00 49 1003.8
20260506170118 23 207 8.0 25.7 0.00 0.00 0.00 49 1003.4
20260506165226 23 161 8.0 19.3 0.00 0.00 0.00 50 1003.8
20260506164728 23 161 4.8 12.9 0.00 0.00 0.00 51 1003.9
20260506164500 22 187 4.8 12.9 0.00 0.00 0.00 51 1003.4
20260506164217 23 219 4.8 12.9 0.00 0.00 0.00 52 1003.9
20260506163705 23 240 4.8 12.9 0.00 0.00 0.00 52 1003.9
20260506163153 22 233 4.8 12.9 0.00 0.00 0.00 52 1003.9
20260506163052 22 246 3.2 11.3 0.00 0.00 0.00 52 1003.5
20260506162646 22 217 4.8 12.9 0.00 0.00 0.00 51 1004.0
20260506162156 22 225 6.4 12.9 0.00 0.00 0.00 51 1004.0
20260506161648 22 245 6.4 12.9 0.00 0.00 0.00 51 1004.1
20260506161510 22 240 4.8 12.9 0.00 0.00 0.00 51 1003.7
20260506161139 22 238 4.8 12.9 0.00 0.00 0.00 51 1004.2
20260506160633 23 218 4.8 11.3 0.00 0.00 0.00 50 1004.2
20260506160122 23 278 6.4 16.1 0.00 0.00 0.00 50 1004.3
20260506160045 22 278 6.4 16.1 0.00 0.00 0.00 50 1003.9
20260506155601 23 225 8.0 19.3 0.00 0.00 0.00 49 1004.3
20260506155048 23 234 8.0 19.3 0.00 0.00 0.00 49 1004.4
20260506154533 23 252 4.8 19.3 0.00 0.00 0.00 50 1004.5
20260506154026 23 245 4.8 9.7 0.00 0.00 0.00 50 1004.5
20260506153518 23 193 6.4 17.7 0.00 0.00 0.00 50 1004.6
20260506153051 23 222 6.4 17.7 0.00 0.00 0.00 49 1004.1
20260506153004 23 237 8.0 17.7 0.00 0.00 0.00 49 1004.5
20260506152502 23 220 8.0 19.3 0.00 0.00 0.00 50 1004.6
20260506151530 23 189 9.7 19.3 0.00 0.00 0.00 49 1004.2
20260506151448 23 207 9.7 17.7 0.00 0.00 0.00 49 1004.8
20260506150943 23 271 8.0 14.5 0.00 0.00 0.00 49 1004.9
20260506150435 23 238 8.0 14.5 0.00 0.00 0.00 48 1004.9
20260506145920 23 229 9.7 16.1 0.00 0.00 0.00 49 1004.9
20260506145406 23 218 9.7 16.1 0.00 0.00 0.00 49 1005.0
20260506144853 23 241 6.4 17.7 0.00 0.00 0.00 48 1004.9
20260506144523 23 238 6.4 14.5 0.00 0.00 0.00 49 1004.4
20260506144342 23 244 6.4 17.7 0.00 0.00 0.00 49 1005.0
20260506143831 23 232 9.7 22.5 0.00 0.00 0.00 47 1004.9
20260506143104 23 252 12.9 22.5 0.00 0.00 0.00 47 1004.4
20260506142813 23 216 6.4 17.7 0.00 0.00 0.00 48 1005.1
20260506142258 23 238 8.0 20.9 0.00 0.00 0.00 49 1005.1
20260506141750 23 235 8.0 20.9 0.00 0.00 0.00 48 1005.2
20260506141520 23 238 9.7 20.9 0.00 0.00 0.00 48 1004.7
20260506141238 23 244 8.0 17.7 0.00 0.00 0.00 48 1005.2
20260506140212 24 244 12.9 24.1 0.00 0.00 0.00 46 1005.4
20260506140046 23 241 8.0 24.1 0.00 0.00 0.00 46 1004.8
20260506135702 23 225 12.9 25.7 0.00 0.00 0.00 46 1005.4
20260506135146 23 242 12.9 25.7 0.00 0.00 0.00 45 1005.4
20260506134630 23 200 14.5 30.6 0.00 0.00 0.00 44 1005.3
20260506134505 23 197 14.5 30.6 0.00 0.00 0.00 44 1004.8
20260506134120 24 180 12.9 30.6 0.00 0.00 0.00 45 1005.3
20260506133606 24 175 11.3 24.1 0.00 0.00 0.00 45 1005.3
20260506133056 24 241 9.7 24.1 0.00 0.00 0.00 46 1005.4
20260506133033 23 281 14.5 24.1 0.00 0.00 0.00 45 1004.8
20260506132546 24 245 8.0 22.5 0.00 0.00 0.00 45 1005.4
20260506132032 24 217 8.0 20.9 0.00 0.00 0.00 45 1005.3
20260506131600 24 248 8.0 20.9 0.00 0.00 0.00 45 1004.9
20260506131520 24 257 6.4 22.5 0.00 0.00 0.00 45 1005.5
20260506131009 24 218 8.0 22.5 0.00 0.00 0.00 47 1005.5
20260506130457 24 228 9.7 22.5 0.00 0.00 0.00 47 1005.5
20260506130023 23 207 12.9 29.0 0.00 0.00 0.00 46 1004.9
20260506125944 23 205 11.3 29.0 0.00 0.00 0.00 46 1005.5
20260506125428 23 214 11.3 29.0 0.00 0.00 0.00 45 1005.6
20260506124918 23 223 12.9 29.0 0.00 0.00 0.00 45 1005.7
20260506124546 23 184 11.3 27.4 0.00 0.00 0.00 46 1005.2
20260506124404 23 216 12.9 29.0 0.00 0.00 0.00 46 1005.7
20260506123851 24 238 11.3 25.7 0.00 0.00 0.00 47 1005.7
20260506123336 23 188 11.3 25.7 0.00 0.00 0.00 46 1005.7
20260506123002 23 160 8.0 25.7 0.00 0.00 0.00 47 1005.3
20260506122822 23 254 12.9 27.4 0.00 0.00 0.00 47 1005.9
20260506122306 23 223 11.3 27.4 0.00 0.00 0.00 47 1005.8
20260506121754 23 181 11.3 25.7 0.00 0.00 0.00 50 1005.7
20260506121538 23 263 6.4 25.7 0.00 0.00 0.00 51 1005.3
20260506121249 23 206 11.3 25.7 0.00 0.00 0.00 51 1005.9
20260506120733 22 266 12.9 25.7 0.00 0.00 0.00 50 1005.8
20260506120218 23 248 14.5 27.4 0.00 0.00 0.00 51 1005.9
20260506120057 22 255 14.5 27.4 0.00 0.00 0.00 50 1005.4
20260506115702 23 202 12.9 27.4 0.00 0.00 0.00 50 1005.8
20260506115148 23 222 11.3 22.5 0.00 0.00 0.00 50 1005.9
20260506114631 23 248 12.9 25.7 0.00 0.00 0.00 49 1005.9
20260506114504 22 263 8.0 25.7 0.00 0.00 0.00 50 1005.4
20260506114116 23 213 14.5 25.7 0.00 0.00 0.00 50 1005.9
20260506113049 23 157 12.9 25.7 0.00 0.00 0.00 51 1005.8
20260506113023 22 137 8.0 25.7 0.00 0.00 0.00 51 1005.3
20260506112545 22 198 14.5 24.1 0.00 0.00 0.00 53 1005.9
20260506111542 22 243 14.5 29.0 0.00 0.00 0.00 53 1005.4
20260506110949 22 199 14.5 29.0 0.00 0.00 0.00 53 1005.9
20260506110437 22 236 12.9 29.0 0.00 0.00 0.00 54 1006.0
20260506110006 22 215 12.9 24.1 0.00 0.00 0.00 53 1005.5
20260506105925 22 160 9.7 27.4 0.00 0.00 0.00 54 1006.0
20260506104856 22 242 12.9 25.7 0.00 0.00 0.00 53 1006.1
20260506104626 22 230 16.1 25.7 0.00 0.00 0.00 54 1005.6
20260506104345 22 225 11.3 27.4 0.00 0.00 0.00 54 1006.2
20260506103831 22 252 12.9 27.4 0.00 0.00 0.00 54 1006.2
20260506103150 21 238 11.3 33.8 0.00 0.00 0.00 55 1005.6
20260506102803 22 187 12.9 35.4 0.00 0.00 0.00 55 1006.3
20260506102251 22 240 12.9 27.4 0.00 0.00 0.00 56 1006.1
20260506101735 21 195 14.5 25.7 0.00 0.00 0.00 56 1006.2
20260506101503 21 173 14.5 25.7 0.00 0.00 0.00 56 1005.6
20260506101221 21 269 12.9 30.6 0.00 0.00 0.00 57 1006.2
20260506100709 21 197 11.3 30.6 0.00 0.00 0.00 57 1006.1
20260506100205 21 200 12.9 27.4 0.00 0.00 0.00 56 1006.2
20260506100128 21 225 14.5 27.4 0.00 0.00 0.00 56 1005.7
20260506095642 21 201 14.5 30.6 0.00 0.00 0.00 57 1006.2
20260506095124 21 247 12.9 30.6 0.00 0.00 0.00 57 1006.2
20260506094611 21 261 12.9 25.7 0.00 0.00 0.00 58 1006.2
20260506094606 21 249 9.7 25.7 0.00 0.00 0.00 58 1005.7
20260506094058 21 247 14.5 25.7 0.00 0.00 0.00 58 1006.2
20260506093033 21 246 11.3 30.6 0.00 0.00 0.00 60 1006.1
20260506093006 20 245 14.5 30.6 0.00 0.00 0.00 60 1005.7
20260506092518 20 202 12.9 22.5 0.00 0.00 0.00 60 1006.2
20260506092006 20 260 14.5 29.0 0.00 0.00 0.00 59 1006.1
20260506091534 20 219 14.5 29.0 0.00 0.00 0.00 59 1005.6
20260506091457 21 253 14.5 30.6 0.00 0.00 0.00 60 1006.1
20260506090430 20 199 14.5 38.6 0.00 0.00 0.00 60 1006.1
20260506085414 20 190 16.1 33.8 0.00 0.00 0.00 60 1006.0
20260506084905 20 231 14.5 29.0 0.00 0.00 0.00 62 1006.0
20260506084549 20 244 16.1 29.0 0.00 0.00 0.00 61 1005.4
20260506084406 20 221 11.3 29.0 0.00 0.00 0.00 62 1006.0
20260506083908 20 221 11.3 30.6 0.00 0.00 0.00 62 1005.9
20260506083402 20 257 9.7 30.6 0.00 0.00 0.00 61 1005.9
20260506083039 20 248 4.8 24.1 0.00 0.00 0.00 63 1005.2
20260506082856 20 245 9.7 24.1 0.00 0.00 0.00 62 1005.8
20260506081840 20 222 9.7 22.5 0.00 0.00 0.00 63 1005.8
20260506081513 20 152 9.7 25.7 0.00 0.00 0.00 64 1005.2
20260506081335 20 186 11.3 25.7 0.00 0.00 0.00 65 1005.8
20260506080821 19 234 12.9 32.2 0.00 0.00 0.00 65 1005.8
20260506080314 19 269 12.9 30.6 0.00 0.00 0.00 65 1005.6
20260506073223 18 250 11.3 29.0 0.00 0.00 0.00 67 1005.7
20260506073108 18 242 9.7 29.0 0.00 0.00 0.00 67 1005.1
20260506072715 18 232 11.3 29.0 0.00 0.00 0.00 67 1005.7
20260506072205 18 254 11.3 24.1 0.00 0.00 0.00 68 1005.7
20260506071651 18 252 9.7 24.1 0.00 0.00 0.00 68 1005.7
20260506071530 18 219 9.7 20.9 0.00 0.00 0.00 68 1005.1
20260506071142 18 250 11.3 24.1 0.00 0.00 0.00 68 1005.6
20260506070627 17 255 12.9 27.4 0.00 0.00 0.00 68 1005.5
20260506061423 16 194 12.9 30.6 0.00 0.00 0.00 70 1005.5
20260506060904 16 213 12.9 30.6 0.00 0.00 0.00 70 1005.4
20260506060351 16 225 14.5 40.2 0.00 0.00 0.00 71 1005.3
20260506051132 15 213 8.0 16.1 0.00 0.00 0.00 74 1005.1
20260506050618 15 188 6.4 17.7 0.00 0.00 0.00 73 1005.1
20260506045037 15 236 3.2 12.9 0.00 0.00 0.00 74 1005.0
20260506044523 15 208 3.2 11.3 0.00 0.00 0.00 74 1005.1
20260506044009 15 170 3.2 9.7 0.00 0.00 0.00 74 1005.0
20260506043021 14 246 3.2 9.7 0.00 0.00 0.00 75 1004.4
20260506042944 14 252 3.2 9.7 0.00 0.00 0.00 75 1005.0
20260506042429 14 239 3.2 11.3 0.00 0.00 0.00 75 1004.9
20260506041915 14 236 3.2 11.3 0.00 0.00 0.00 75 1004.9
20260506041550 13 199 3.2 11.3 0.00 0.00 0.00 76 1004.3
20260506041404 14 190 1.6 11.3 0.00 0.00 0.00 76 1004.8
20260506040847 13 193 1.6 11.3 0.00 0.00 0.00 77 1004.8
20260506040333 13 227 0.0 3.2 0.00 0.00 0.00 78 1004.8
20260506040001 13 227 0.0 4.8 0.00 0.00 0.00 78 1004.3
20260506035819 13 227 1.6 6.4 0.00 0.00 0.00 79 1004.8
20260506035306 13 227 1.6 6.4 0.00 0.00 0.00 80 1004.6
20260506034749 12 240 0.0 3.2 0.00 0.00 0.00 81 1004.8
20260506034518 12 229 0.0 3.2 0.00 0.00 0.00 82 1004.1
20260506034235 12 242 0.0 3.2 0.00 0.00 0.00 82 1004.5
20260506033720 12 242 0.0 3.2 0.00 0.00 0.00 83 1004.5
20260506033208 11 242 0.0 3.2 0.00 0.00 0.00 85 1004.5
20260506033037 11 240 0.0 3.2 0.00 0.00 0.00 86 1004.1
20260506032651 11 240 0.0 3.2 0.00 0.00 0.00 87 1004.5
20260506031605 10 244 0.0 0.0 0.00 0.00 0.00 86 1004.2
20260506031110 10 244 0.0 0.0 0.00 0.00 0.00 85 1004.6
20260506030059 10 244 0.0 0.0 0.00 0.00 0.00 85 1004.6
20260506030021 10 244 0.0 0.0 0.00 0.00 0.00 85 1004.1
20260506025534 10 244 0.0 0.0 0.00 0.00 0.00 84 1004.6
20260506025018 10 244 0.0 0.0 0.00 0.00 0.00 84 1004.8
20260506024533 10 244 0.0 0.0 0.00 0.00 0.00 84 1004.2
20260506024456 10 244 0.0 0.0 0.00 0.00 0.00 84 1004.8
20260506023412 10 244 0.0 0.0 0.00 0.00 0.00 83 1004.9
20260506023037 10 244 0.0 0.0 0.00 0.00 0.00 83 1004.3
20260506022855 10 244 0.0 0.0 0.00 0.00 0.00 83 1004.8
20260506022343 10 244 0.0 0.0 0.00 0.00 0.00 82 1004.8
20260506021832 11 244 0.0 0.0 0.00 0.00 0.00 82 1004.9
20260506021324 11 244 0.0 0.0 0.00 0.00 0.00 81 1004.8
20260506020813 11 244 0.0 0.0 0.00 0.00 0.00 80 1004.8
20260506020301 11 244 0.0 0.0 0.00 0.00 0.00 79 1004.8
20260506020133 11 244 0.0 0.0 0.00 0.00 0.00 79 1004.2
20260506015750 11 244 0.0 0.0 0.00 0.00 0.00 79 1004.8
20260506015238 11 244 0.0 1.6 0.00 0.00 0.00 80 1004.6
20260506014728 11 244 0.0 1.6 0.00 0.00 0.00 80 1004.8
20260506014221 11 244 0.0 0.0 0.00 0.00 0.00 80 1004.8
20260506013037 11 244 0.0 3.2 0.00 0.00 0.00 80 1004.2
20260506012648 11 244 0.0 3.2 0.00 0.00 0.00 79 1004.6
20260506012147 11 241 0.0 0.0 0.00 0.00 0.00 79 1004.5
20260506011529 11 241 0.0 0.0 0.00 0.00 0.00 78 1004.1
20260506011144 11 241 0.0 0.0 0.00 0.00 0.00 78 1004.5
20260506010640 11 241 0.0 1.6 0.00 0.00 0.00 78 1004.5
20260506010017 11 241 0.0 0.0 0.00 0.00 0.00 77 1004.0
20260506005635 12 241 0.0 0.0 0.00 0.00 0.00 76 1004.5
20260506004619 12 241 0.0 0.0 0.00 0.00 0.00 75 1004.4
20260506004559 12 241 0.0 0.0 0.00 0.00 0.00 75 1004.0
20260506003614 12 241 0.0 0.0 0.00 0.00 0.00 73 1004.3
20260506003038 12 241 0.0 0.0 0.00 0.00 0.00 72 1004.0
20260506002551 13 241 0.0 0.0 0.00 0.00 0.00 71 1004.4
20260506002047 13 241 0.0 0.0 0.00 0.00 0.00 71 1004.5
20260506001533 13 241 0.0 0.0 0.00 0.00 0.00 70 1004.6
20260506001510 13 241 0.0 0.0 0.00 0.00 0.00 70 1004.2
20260506001024 13 241 0.0 0.0 0.00 0.00 0.00 69 1004.6
20260506000516 14 241 0.0 0.0 0.00 0.00 0.00 68 1004.6
20260506000044 14 241 0.0 1.6 0.00 0.00 0.00 66 1004.3
20260506000006 14 241 0.0 1.6 0.00 0.00 0.00 66 1004.8
20260505235456 15 241 0.0 1.6 0.00 0.00 0.00 66 1004.8
20260505234946 15 241 0.0 0.0 0.00 0.00 0.00 65 1004.9
20260505234511 15 241 0.0 0.0 0.00 0.00 0.00 65 1004.4
20260505234447 15 241 0.0 4.8 0.00 0.00 0.00 65 1004.9
20260505233920 15 241 0.0 4.8 0.00 0.00 0.00 66 1004.9
20260505233405 14 257 0.0 3.2 0.00 0.00 0.00 67 1004.8
20260505233042 13 257 0.0 3.2 0.00 0.00 0.00 68 1004.4
20260505231850 13 244 0.0 0.0 0.00 0.00 0.00 69 1005.0
20260505231527 13 244 0.0 0.0 0.00 0.00 0.00 68 1004.5
20260505231351 14 244 0.0 0.0 0.00 0.00 0.00 68 1005.0
20260505230827 14 244 0.0 3.2 0.00 0.00 0.00 66 1005.0
20260505230329 15 244 0.0 3.2 0.00 0.00 0.00 64 1005.1
20260505230058 14 207 0.0 0.0 0.00 0.00 0.00 64 1004.6
20260505225819 15 207 0.0 0.0 0.00 0.00 0.00 63 1005.0
20260505225306 15 207 0.0 0.0 0.00 0.00 0.00 61 1005.1
20260505224755 15 207 0.0 0.0 0.00 0.00 0.00 60 1005.1
20260505224526 15 207 0.0 0.0 0.00 0.00 0.00 60 1004.6
20260505224242 16 207 0.0 0.0 0.00 0.00 0.00 59 1005.1
20260505223730 16 207 0.0 1.6 0.00 0.00 0.00 57 1005.1
20260505223056 16 207 0.0 1.6 0.00 0.00 0.00 56 1004.6
20260505222706 17 207 0.0 1.6 0.00 0.00 0.00 55 1005.1
20260505222154 17 207 0.0 1.6 0.00 0.00 0.00 54 1005.1
20260505221642 18 207 0.0 8.0 0.00 0.00 0.00 53 1005.1
20260505221514 17 207 0.0 8.0 0.00 0.00 0.00 53 1004.7
20260505221128 18 208 0.0 8.0 0.00 0.00 0.00 52 1005.1
20260505220629 18 151 1.6 4.8 0.00 0.00 0.00 51 1005.1
20260505220146 18 105 1.6 6.4 0.00 0.00 0.00 50 1004.6
20260505220114 18 105 1.6 6.4 0.00 0.00 0.00 50 1005.1
20260505215617 18 105 1.6 6.4 0.00 0.00 0.00 50 1005.2
20260505215054 19 137 1.6 4.8 0.00 0.00 0.00 49 1005.2
20260505214553 19 187 1.6 4.8 0.00 0.00 0.00 48 1005.2
20260505214516 19 187 0.0 4.8 0.00 0.00 0.00 48 1004.7
20260505214030 20 184 1.6 4.8 0.00 0.00 0.00 47 1005.2
20260505213518 20 182 3.2 12.9 0.00 0.00 0.00 47 1005.2
20260505213043 20 184 4.8 12.9 0.00 0.00 0.00 47 1004.6
20260505213004 20 157 3.2 12.9 0.00 0.00 0.00 47 1005.1
20260505212454 20 179 3.2 11.3 0.00 0.00 0.00 46 1005.1
20260505211940 20 151 3.2 11.3 0.00 0.00 0.00 46 1005.1
20260505211611 20 159 1.6 12.9 0.00 0.00 0.00 45 1004.7
20260505211424 20 215 4.8 12.9 0.00 0.00 0.00 45 1005.1
20260505210911 20 213 8.0 24.1 0.00 0.00 0.00 45 1005.3
20260505210355 20 245 11.3 22.5 0.00 0.00 0.00 45 1005.3
20260505210028 20 259 4.8 25.7 0.00 0.00 0.00 45 1004.9
20260505205846 20 154 11.3 25.7 0.00 0.00 0.00 45 1005.3
20260505205333 20 218 8.0 17.7 0.00 0.00 0.00 46 1005.4
20260505204820 21 209 8.0 17.7 0.00 0.00 0.00 46 1005.5
20260505204553 20 188 8.0 17.7 0.00 0.00 0.00 47 1005.0
20260505203013 20 154 9.7 16.1 0.00 0.00 0.00 48 1004.9
20260505201704 20 170 8.0 16.1 0.00 0.00 0.00 49 1005.3
20260505201536 20 147 4.8 17.7 0.00 0.00 0.00 49 1004.9
20260505201152 20 143 6.4 22.5 0.00 0.00 0.00 50 1005.3
20260505200640 20 169 3.2 14.5 0.00 0.00 0.00 52 1005.3
20260505200127 18 189 0.0 14.5 0.00 0.00 0.00 53 1005.3
20260505200104 18 184 3.2 14.5 0.00 0.00 0.00 53 1004.9
20260505195623 18 152 0.0 3.2 0.00 0.00 0.00 53 1005.3
20260505195111 19 152 0.0 3.2 0.00 0.00 0.00 52 1005.3
20260505194556 20 144 0.0 3.2 0.00 0.00 0.00 51 1005.2
20260505194531 20 144 0.0 3.2 0.00 0.00 0.00 51 1004.8
20260505194045 20 144 0.0 3.2 0.00 0.00 0.00 50 1005.3
20260505193533 21 144 0.0 3.2 0.00 0.00 0.00 48 1005.2
20260505193049 21 144 0.0 3.2 0.00 0.00 0.00 47 1004.8
20260505193014 21 144 0.0 3.2 0.00 0.00 0.00 47 1005.2
20260505192502 21 143 1.6 6.4 0.00 0.00 0.00 46 1005.2
20260505191951 21 143 1.6 4.8 0.00 0.00 0.00 46 1005.2
20260505191515 21 150 0.0 4.8 0.00 0.00 0.00 46 1004.8
20260505191438 21 150 1.6 8.0 0.00 0.00 0.00 45 1005.2
20260505190924 21 149 3.2 8.0 0.00 0.00 0.00 45 1005.2